SCP
0 0 0 0 0 0 0 0 0 0 0 0 0 0 0 0 0 0 0 0 1 1 1 0 0 0 0 0 0 0 0 0 0 0 0 0 0 0 0 0 0 0 0
0 0 0 0 0 0 0 0 0 0 0 0 0 0 0 0 0 0 0 1 1 1 1 0 0 0 0 0 0 0 0 0 0 0 0 0 0 0 0 0 0 0 0
0 0 0 0 0 0 0 0 0 0 0 0 0 0 0 0 0 0 0 0 1 1 0 0 1 1 0 0 0 0 0 0 0 0 0 0 0 0 0 0 0 0 0
0 0 0 0 0 0 0 0 0 0 0 0 0 0 0 0 0 0 0 0 0 0 1 1 0 1 1 1 1 1 1 1 1 0 0 0 0 0 0 0 0 0 0
0 0 0 0 0 0 0 0 0 0 0 0 0 0 0 0 0 0 0 0 0 0 1 0 0 0 0 1 1 1 1 1 1 0 0 0 0 0 0 0 0 0 0
0 0 0 0 0 0 0 0 0 0 0 0 0 0 0 0 0 0 0 0 0 0 0 0 0 0 0 1 1 1 1 1 0 0 0 0 0 0 0 0 0 0 0
0 0 0 0 0 0 0 0 0 0 0 0 0 0 0 0 0 0 0 0 0 0 0 0 0 0 0 0 0 0 0 0 0 0 0 0 0 0 0 0 0 0 0
0 0 0 0 0 0 0 0 0 0 0 0 0 0 0 0 0 0 0 0 0 0 0 0 0 0 0 0 0 0 0 0 0 0 0 0 0 0 0 0 0 0 0
0 0 0 0 0 0 0 0 0 0 0 0 0 0 0 0 0 0 0 0 0 0 0 0 0 0 0 0 0 0 0 0 0 0 0 1 0 0 0 0 0 0 0
0 0 0 0 0 0 0 0 0 0 0 0 0 0 0 0 0 0 0 0 0 0 0 0 0 0 0 0 0 0 0 0 0 0 1 1 1 1 1 0 0 0 0
0 0 0 0 0 0 0 0 0 0 0 0 0 0 0 0 0 0 0 0 0 0 0 0 0 0 0 0 0 0 0 0 0 0 0 1 1 1 1 0 0 0 0
0 0 0 0 0 0 0 0 0 0 0 0 0 0 0 0 0 0 0 0 0 0 0 0 0 0 0 0 0 0 0 0 0 0 0 0 0 0 0 0 0 0 0
0 0 0 0 0 0 0 0 0 0 0 0 0 0 0 0 0 0 0 0 0 0 0 0 0 0 0 0 0 0 0 0 0 0 0 0 0 0 0 0 0 0 1
0 0 0 0 0 0 0 0 0 0 0 0 0 0 0 0 0 0 0 0 0 0 0 0 0 0 0 0 0 0 0 0 0 0 0 0 0 0 0 0 0 0 0
0 0 0 0 0 0 0 0 0 0 0 0 0 0 0 0 0 0 0 0 0 0 0 0 0 0 0 0 0 0 0 0 0 0 0 0 0 0 0 0 0 0 0
0 0 0 0 0 0 0 0 0 0 0 0 0 0 0 0 0 0 0 0 0 0 0 0 0 0 0 0 0 0 0 0 0 0 0 0 0 0 0 0 0 0 0
0 0 0 0 0 0 0 0 0 0 0 0 0 0 0 0 0 0 0 0 0 0 0 0 0 0 0 0 0 0 0 0 0 0 0 0 0 0 0 0 0 0 0
0 0 0 0 0 0 0 0 0 0 0 0 0 0 0 0 0 0 0 0 0 0 0 0 0 0 0 0 0 0 0 0 0 0 0 0 0 0 0 0 0 0 0
0 0 0 0 0 0 0 1 1 1 0 0 0 0 0 0 0 0 0 0 0 0 0 0 0 0 0 0 0 0 0 0 0 0 0 0 0 0 0 0 0 0 0
1 1 1 1 0 0 1 1 1 1 1 0 0 0 0 0 0 0 0 0 0 0 0 0 0 0 0 0 0 0 0 0 0 0 0 0 0 0 0 0 0 0 0
1 1 1 1 1 1 1 1 1 1 1 1 0 0 0 0 0 0 0 0 0 0 0 0 0 0 0 0 0 0 0 0 0 0 0 0 0 0 0 0 0 0 0
1 1 1 1 1 1 1 1 1 1 1 1 1 0 1 1 1 0 0 0 0 0 0 0 0 0 0 0 0 0 0 0 0 0 0 0 0 0 0 0 0 0 0
2 1 1 1 1 1 1 0 0 0 1 0 0 0 0 0 0 0 0 0 0 0 0 0 1 0 0 0 0 0 0 0 0 0 0 0 0 0 0 0 0 0 0
1 1 1 1 1 1 1 0 0 0 0 0 0 0 0 0 0 0 0 0 0 0 0 0 0 0 0 0 0 0 0 0 0 0 0 0 0 0 0 0 0 0 0
1 1 1 1 1 1 1 0 0 0 0 0 0 0 0 0 0 0 0 0 0 0 0 0 0 0 0 0 0 0 0 0 0 0 0 0 0 0 0 0 0 0 0
1 1 1 1 1 1 1 0 0 0 0 0 0 0 0 0 0 0 0 0 0 0 0 0 0 0 0 0 0 0 0 0 0 0 0 0 0 0 0 0 0 0 0
Wind_Speed
3 2 1 1 1 1 2 2 2 2 1 1 2 5 5 5 5 4 3 11 12 11 12 13 13 13 12 12 12 12 12 11 11 10 10 10 10 10 10 9 9 8 8
3 2 2 1 1 1 2 2 2 2 2 2 2 4 4 5 4 4 3 6 11 11 12 13 13 13 13 13 12 12 12 12 11 10 10 10 10 10 10 9 9 8 7
3 3 2 2 1 1 2 2 2 2 2 2 2 3 3 3 4 4 3 2 4 9 11 11 11 12 13 13 13 12 12 11 11 11 10 10 9 9 9 9 9 9 8
4 3 2 1 1 2 2 3 2 2 2 2 1 1 2 2 4 4 3 3 3 3 7 11 11 11 12 13 14 13 13 12 12 11 11 11 10 10 9 9 9 9 9
4 3 2 1 2 3 2 3 2 2 2 1 1 1 1 2 2 3 3 4 4 3 3 6 9 10 12 13 14 14 14 13 13 13 13 12 12 11 10 10 10 10 10
4 4 3 3 3 3 3 3 3 2 1 1 1 1 1 1 1 2 2 2 3 4 4 4 4 6 11 11 12 12 13 14 13 13 14 14 13 12 11 11 11 11 11
4 4 3 3 3 3 3 3 2 3 2 1 3 3 3 2 0 1 1 1 2 3 3 3 3 3 3 9 10 11 12 13 13 13 13 13 13 12 12 12 12 11 11
4 4 4 3 3 3 4 3 3 2 2 2 3 3 2 4 3 1 0 1 1 1 2 3 3 3 2 2 5 10 11 12 13 13 12 12 12 12 12 13 13 12 12
4 4 5 4 3 3 3 3 3 3 2 2 1 4 3 2 2 3 2 0 1 1 1 1 3 3 3 2 2 6 9 9 11 12 11 11 11 11 12 12 13 13 13
4 5 5 5 4 3 3 2 3 2 3 2 2 1 2 3 3 0 3 2 1 1 1 1 2 2 3 2 3 5 6 7 8 9 10 10 10 10 11 12 13 14 14
4 4 5 5 4 3 3 3 3 3 3 2 1 1 2 2 2 3 1 3 3 2 2 2 2 2 3 3 3 4 5 5 5 5 6 7 8 10 10 11 12 13 14
2 3 4 4 4 3 3 3 3 3 3 3 2 2 2 2 1 2 2 1 2 3 2 2 2 2 3 3 5 6 6 5 4 3 3 4 5 6 8 9 10 11 12
3 4 4 4 3 3 4 3 3 3 2 2 2 1 1 1 2 2 2 1 1 3 3 2 2 2 3 3 4 8 7 7 6 5 5 4 4 5 6 7 9 10 10
5 5 5 5 5 5 4 3 2 2 2 2 2 2 1 1 1 2 3 3 1 2 3 4 2 2 3 3 5 8 5 9 8 8 7 7 7 7 7 7 8 8 9
5 6 7 6 5 5 5 4 2 2 2 2 2 1 1 1 0 1 2 3 4 1 3 4 3 2 2 3 6 5 5 9 11 10 10 10 10 9 9 9 9 9 9
5 6 7 7 6 5 5 4 3 3 3 3 2 2 2 1 1 0 1 1 2 4 3 3 3 3 2 3 6 5 6 10 12 12 12 12 12 12 12 12 11 11 11
5 7 7 7 7 6 6 5 5 4 4 4 3 3 4 3 2 2 1 1 1 3 3 4 3 3 2 3 3 4 5 6 6 13 14 14 14 14 14 14 14 13 13
6 7 7 7 7 7 7 7 7 6 5 5 5 5 5 4 4 3 3 3 3 3 4 5 4 3 4 4 4 5 6 7 6 11 15 15 16 16 16 16 16 15 15
6 6 7 7 8 7 7 7 7 7 7 7 6 6 7 6 6 5 5 5 4 4 4 4 5 3 4 4 4 5 6 5 7 9 12 15 16 17 17 17 17 17 16
6 6 6 7 7 7 7 7 7 7 7 7 7 7 7 7 8 7 6 6 5 5 5 5 6 5 5 4 3 4 5 5 6 7 9 9 12 15 16 17 17 17 17
6 6 6 5 5 6 6 7 7 7 7 7 6 7 7 9 10 8 6 6 6 6 5 6 7 5 5 4 5 4 6 6 6 5 5 7 6 6 8 12 15 17 17
3 3 4 4 4 4 4 7 6 4 4 5 5 5 6 6 7 9 10 9 8 7 7 6 7 8 9 7 6 5 6 5 7 4 5 7 5 7 7 7 12 16 17
0 1 2 2 2 1 2 3 4 2 2 2 2 3 3 3 3 3 6 8 8 11 11 9 9 10 9 7 6 7 7 8 9 6 3 7 5 8 7 8 15 17 18
2 2 2 2 2 2 2 1 1 1 1 1 2 2 1 2 4 4 4 4 5 6 8 7 8 10 9 8 8 9 10 9 7 5 5 7 6 7 7 7 13 17 18
4 3 3 4 4 4 5 4 4 3 3 3 4 4 3 3 7 8 5 5 7 7 8 9 10 12 14 15 12 7 7 7 10 8 6 7 7 7 7 8 10 16 18
4 4 5 5 5 4 6 7 6 3 3 3 4 4 5 5 7 8 4 5 7 8 8 10 10 10 10 11 14 10 9 9 9 7 6 6 7 6 6 6 8 8 10
Wind_Direction
127 132 140 140 149 152 158 155 170 179 160 140 132 135 148 156 164 170 197 199 190 184 183 183 181 180 179 177 175 174 172 170 167 165 165 164 163 163 161 158 157 154 153
124 116 107 116 119 139 153 158 165 158 153 141 135 139 151 153 166 182 191 202 196 191 190 189 189 188 187 186 186 183 181 179 176 175 174 173 171 171 171 168 167 164 162
113 108 108 104 100 112 126 116 108 101 126 127 123 138 147 157 169 181 188 197 203 204 200 196 196 196 195 193 193 192 190 188 184 183 182 181 180 180 179 178 177 175 173
102 100 105 98 79 85 99 106 92 90 80 95 106 138 153 164 172 184 191 196 203 210 211 207 203 203 202 201 200 199 198 195 192 191 190 189 188 189 189 187 186 185 184
99 100 95 81 84 88 85 101 86 105 103 96 123 129 145 156 166 178 191 203 206 206 204 217 213 210 209 209 207 205 203 201 199 199 199 198 197 196 196 196 195 194 193
97 97 91 75 85 89 80 84 86 78 108 122 73 67 65 154 169 172 194 195 211 207 202 211 210 219 219 216 213 212 211 208 206 206 206 206 205 203 203 203 203 202 202
99 94 91 76 84 93 97 96 87 69 49 73 71 30 3 6 360 203 171 170 202 203 193 202 200 207 225 226 222 219 218 215 211 211 211 210 210 208 208 209 210 209 209
115 106 104 100 91 90 75 67 77 82 28 60 112 91 30 355 345 339 276 174 180 169 191 198 195 201 212 211 225 224 223 222 220 217 216 215 215 213 212 213 215 215 215
121 114 111 105 94 102 97 83 82 102 80 20 84 135 140 200 298 332 321 261 184 165 200 203 196 198 201 201 214 230 230 227 226 225 222 220 219 218 218 218 219 219 220
138 130 119 110 104 107 109 107 92 100 106 64 13 38 142 156 142 318 328 323 303 217 211 203 191 194 191 188 198 207 222 227 230 234 231 227 225 223 224 226 228 227 225
157 147 132 123 120 116 116 106 95 88 100 111 88 54 54 55 85 130 237 315 332 307 261 227 195 194 186 180 187 196 199 211 223 234 238 237 231 229 229 231 236 236 233
169 168 150 141 141 137 135 128 117 107 104 101 94 91 107 107 115 127 159 256 290 294 291 267 222 210 199 189 202 190 185 189 198 211 228 240 240 239 240 240 243 244 242
188 193 169 159 158 163 159 145 133 128 128 120 125 120 118 144 161 144 132 162 304 305 320 300 251 229 213 197 208 199 196 196 202 209 219 230 240 246 248 251 253 253 251
198 189 181 176 175 173 168 154 147 164 158 155 150 141 138 169 153 155 152 141 60 332 324 291 297 244 224 205 216 204 208 210 213 219 225 231 237 241 244 247 251 254 256
200 190 184 181 182 180 177 166 172 193 185 193 198 194 193 236 178 167 161 154 148 177 285 285 291 284 248 223 218 207 214 222 222 227 233 239 242 243 243 243 245 246 249
198 181 184 184 185 186 183 176 182 198 192 211 209 213 230 233 246 207 159 167 160 165 224 265 262 274 259 238 226 219 226 229 230 232 235 240 244 246 246 245 244 244 244
190 185 184 185 189 193 192 189 201 202 206 225 228 219 233 231 237 244 212 179 184 170 221 269 264 273 258 251 246 236 241 238 239 238 239 241 244 246 246 245 245 244 244
192 190 186 188 197 200 198 198 209 212 211 222 230 227 236 234 235 237 231 232 226 205 209 257 274 271 257 247 242 240 240 237 234 240 239 241 244 246 246 245 244 244 244
195 192 189 195 203 204 203 207 209 215 217 221 223 224 230 226 235 233 230 233 236 235 215 236 264 259 263 259 260 260 252 249 246 246 242 242 244 245 245 244 243 242 242
197 197 197 200 203 205 207 210 211 217 223 227 226 226 228 224 229 229 232 231 231 238 236 242 259 262 259 258 246 258 271 256 254 253 251 246 244 245 245 244 242 242 241
208 202 200 206 208 208 215 212 215 221 224 232 236 235 236 234 232 231 235 231 228 236 240 245 257 264 261 255 247 241 256 265 261 243 251 253 249 249 247 246 244 242 240
225 203 200 206 211 222 224 214 207 219 223 231 244 252 256 254 255 251 251 248 234 235 242 244 252 253 260 252 251 246 251 260 269 242 223 253 234 245 244 237 241 240 239
89 159 179 178 181 213 231 216 212 210 236 254 262 274 282 299 304 293 282 277 266 258 249 249 254 257 260 253 247 252 245 243 252 250 219 257 243 247 245 244 240 239 240
70 71 79 100 98 71 81 99 108 101 53 0 344 333 337 1 6 353 330 320 302 291 276 263 258 265 267 261 246 250 254 257 256 249 217 252 251 248 249 242 244 241 240
66 61 62 74 79 56 58 68 77 63 41 20 16 25 28 19 10 11 358 330 314 304 298 291 283 276 276 273 267 267 260 258 265 258 221 237 252 254 250 247 245 241 241
76 71 65 68 74 65 59 71 81 70 52 29 19 20 26 19 2 1 348 318 303 299 305 308 301 292 280 273 266 252 250 255 262 263 229 229 247 245 261 248 245 243 242